Location: ??????????
(54.4061°N, 22.6114°E)
Time: 14:58:04
(UTC+00:00)

Cosmos 2082 Rocket - Pass Details

Date: 23 October 2019
Orbit: 832 x 854 km, 71.0° (Epoch: 16 November)

Event Time Altitude Azimuth Distance (km) Brightness Sun altitude
Rises 15:43:10 0° 326° (NNW) 3,437 5.7 -4.9°
Reaches altitude 10° 15:45:40 10° 330° (NNW) 2,496 4.9 -5.2°
Maximum altitude 15:51:23 66° 52° (NE) 932 2.3 -6.1°
Drops below altitude 10° 15:57:02 10° 135° (SE) 2,471 4.3 -6.9°
Sets 15:59:30 0° 139° (SE) 3,399 5.0 -7.2°
